{"data":{"norad_id":58297,"epoch":"2026-09-21T22:15:39.163968Z","epoch_age_seconds":118735,"freshness":"FRESH","line1":"1 58297U 23174AT  26264.92753662  .00005125  00000+0  31387-3 0  9995","line2":"2 58297  97.3708 317.0822 0004736 103.6484 256.5273 15.10600358158010","mean_motion":15.10600358,"eccentricity":0.0004736,"inclination_deg":97.3708,"raan_deg":317.0822,"arg_perigee_deg":103.6484,"mean_anomaly_deg":256.5273,"bstar":0.00031387,"rev_number":15801,"period_min":95.326337795029,"perigee_km":531.09414243647,"apogee_km":537.64166708226,"semimajor_km":6912.5049047594,"source":"CELESTRAK","updated_at":"2026-09-22T09:00:26.579719Z"}}